Wind_Speed
35 32 30 27 25 22 18 15 12 10 7 4 2 2 4 6 8 8 8 10 12 13 14 15 18 19 20 21 23 25 25 24 24 25 26 28 29 29 29 30 31 32 31 31 30 30 30 32 33 34 34 33 33 32 31 30 29 29 28 27 27 26 26
37 35 33 30 27 25 22 18 15 12 10 7 5 2 1 3 5 6 7 9 11 13 14 15 17 18 19 20 22 23 23 23 22 24 25 25 26 26 26 28 29 30 30 30 30 30 31 32 33 32 32 31 31 30 29 29 28 27 26 25 25 24 24
39 38 35 33 30 27 25 21 18 15 12 10 8 5 3 0 3 4 5 8 10 12 14 15 16 17 19 20 21 22 22 21 21 22 23 22 22 22 23 25 27 28 28 29 30 31 31 31 31 31 31 30 29 29 28 27 27 26 25 24 23 22 21
41 39 37 35 32 29 27 24 20 17 14 12 11 9 7 4 1 1 3 6 9 11 13 15 16 16 17 19 21 22 21 20 20 20 20 19 19 20 21 23 24 25 27 29 30 30 29 29 30 29 29 28 28 27 27 26 25 24 22 21 20 19 18
45 42 38 37 35 32 30 26 22 18 15 14 14 13 11 8 5 2 1 4 8 11 13 14 15 16 16 18 20 22 21 20 19 18 18 18 18 19 20 22 23 24 26 28 29 29 28 28 28 28 27 27 26 26 24 23 22 20 18 17 16 15 15
49 45 41 39 38 36 34 32 28 26 24 23 21 17 15 13 10 7 4 3 5 10 12 14 15 16 17 18 19 20 21 20 18 17 17 17 18 19 20 21 23 24 26 27 28 27 26 26 26 25 25 24 24 23 21 19 18 16 15 14 13 12 12
52 48 44 42 42 39 37 35 33 31 31 31 28 22 19 17 14 12 9 6 4 7 11 13 15 16 17 18 19 20 20 19 18 17 16 16 17 18 19 21 23 24 25 25 25 25 25 24 24 23 23 22 21 20 18 17 15 13 12 10 9 9 8
53 51 47 45 44 42 39 38 35 33 33 32 30 25 21 20 18 16 13 10 7 5 8 12 14 16 17 18 19 20 20 18 17 16 16 16 17 17 18 20 21 23 23 23 22 22 22 22 22 22 22 21 19 18 16 14 12 10 8 6 5 5 5
55 54 52 49 47 44 41 40 38 36 34 34 32 28 24 22 22 20 17 15 13 9 7 10 13 16 17 18 19 19 19 19 18 16 16 16 17 17 18 18 20 21 21 20 19 19 19 20 20 20 19 18 16 15 13 11 8 5 4 3 2 1 2
57 57 56 53 50 47 43 42 41 39 37 36 36 33 29 26 25 23 21 19 17 15 11 10 11 14 16 17 18 19 19 19 18 18 17 17 17 17 18 19 19 20 19 17 16 16 17 18 19 18 17 15 14 12 11 8 5 4 3 3 2 2 2
58 59 58 56 54 51 47 44 43 42 40 39 39 37 32 29 27 25 24 21 19 18 16 13 11 12 15 17 18 18 19 19 19 19 18 18 18 18 19 20 20 20 17 15 13 15 17 18 18 17 16 15 13 12 10 8 7 6 6 5 4 3 4
58 60 61 60 58 55 51 47 46 45 43 42 41 39 35 31 29 28 26 24 21 19 18 17 15 13 14 16 17 18 18 19 19 19 19 20 20 20 20 21 21 20 18 15 14 16 18 19 19 18 17 16 15 14 12 10 9 8 7 7 6 5 5
58 59 61 62 62 59 55 51 49 48 46 45 43 41 38 35 32 30 29 27 25 23 20 18 18 16 15 15 16 17 18 18 18 19 20 20 21 22 22 22 22 21 19 16 16 17 19 20 21 20 20 18 17 16 14 13 12 11 11 10 9 8 7
59 60 61 62 63 62 58 54 51 51 50 48 46 44 42 39 35 33 31 30 29 28 25 21 19 18 17 16 15 16 16 17 18 18 19 20 21 22 22 22 22 21 20 18 18 18 19 20 21 22 21 20 19 18 17 16 16 16 16 15 14 13 13
59 61 62 62 62 63 60 56 52 52 53 51 48 46 45 42 39 36 34 33 31 30 29 26 23 20 19 18 17 16 15 16 17 18 18 19 20 20 20 21 21 21 20 19 19 19 19 20 21 21 21 21 21 20 19 19 19 19 19 18 18 18 17
61 61 63 64 64 63 62 59 54 53 54 53 50 48 46 44 41 38 36 35 32 32 31 30 28 25 22 21 19 18 17 17 16 16 17 17 17 17 18 18 19 19 18 17 17 18 19 19 20 20 20 21 21 21 20 21 21 21 21 21 22 22 20
63 63 63 66 67 65 64 63 59 55 55 54 52 50 49 46 44 41 39 37 35 34 33 32 31 29 27 24 22 21 21 21 19 18 17 16 15 15 15 16 16 17 16 16 16 17 18 18 19 19 20 21 22 21 21 22 23 23 23 24 24 23 22
65 65 65 67 70 70 67 66 63 60 58 57 55 53 51 49 47 44 42 40 38 36 34 34 34 33 31 28 26 25 25 24 23 22 20 19 17 16 15 15 16 16 16 15 16 17 18 19 19 21 22 23 23 23 23 24 24 24 24 24 23 22 21
66 67 68 69 72 73 71 67 65 64 62 60 59 56 54 52 49 47 45 43 42 39 36 35 35 35 34 33 31 30 29 27 26 25 24 23 22 21 20 19 19 19 18 17 17 18 19 19 20 21 23 23 23 22 23 23 23 23 23 22 21 20 20
67 69 70 70 72 75 74 71 67 66 64 63 61 59 57 54 52 49 48 46 45 43 41 39 38 37 36 36 35 34 33 32 30 29 27 26 25 24 24 23 23 22 21 21 21 21 21 21 22 23 23 23 22 22 23 23 23 23 22 22 21 21 22
66 69 71 71 71 74 76 75 72 69 66 65 64 62 59 58 56 53 50 49 48 48 46 43 41 39 37 37 36 36 36 35 34 32 30 29 27 27 26 26 25 25 25 25 25 24 24 24 25 26 26 25 25 25 26 26 26 25 25 24 24 24 25
66 68 70 72 72 73 75 77 76 73 70 68 66 64 62 60 59 57 54 51 51 50 49 47 44 42 40 38 37 37 37 36 35 34 32 31 30 30 29 29 29 29 29 28 27 26 26 27 28 27 28 28 29 30 30 29 29 28 28 27 27 27 28
64 67 69 72 73 73 74 76 76 75 74 71 69 67 66 63 62 60 57 55 53 52 50 49 47 45 43 41 40 39 37 36 34 34 34 34 32 31 31 31 31 31 31 30 30 30 30 30 28 28 29 31 32 32 31 31 32 32 31 32 31 31 32
63 66 68 71 73 74 75 76 77 77 76 74 72 70 68 67 64 62 60 58 56 54 52 51 50 49 47 45 43 40 38 36 35 35 36 36 34 31 31 31 31 32 33 33 33 33 34 31 28 29 33 34 33 34 34 34 35 35 34 34 34 35 36
61 65 67 70 73 75 76 77 78 79 78 77 74 72 71 70 67 65 63 62 60 58 55 54 54 52 51 48 45 42 40 39 38 38 38 39 37 34 33 33 33 34 35 36 35 36 36 33 30 32 35 34 33 34 35 35 36 36 35 34 34 36 38
58 62 66 68 71 75 77 78 79 80 80 80 77 74 72 71 70 69 67 65 64 62 59 56 54 53 52 51 48 44 42 42 41 40 40 40 38 36 36 36 36 37 38 37 37 39 39 36 34 35 37 36 35 35 35 35 36 37 36 36 36 37 38
54 59 64 67 70 73 76 78 80 81 82 82 81 78 75 73 73 72 71 69 68 66 62 58 54 54 53 52 50 47 44 43 42 41 40 40 39 38 39 40 40 41 41 41 40 40 39 38 37 38 40 40 40 39 37 37 37 37 38 38 37 37 36
51 56 60 65 68 71 75 78 80 81 83 84 84 81 78 76 75 75 74 73 71 69 65 61 57 56 56 54 51 49 47 44 43 42 41 41 41 41 41 41 40 41 43 46 45 43 41 41 40 41 42 43 43 43 42 40 40 40 41 41 41 40 39
47 52 57 62 66 69 73 77 79 81 83 85 86 85 82 80 78 77 76 76 74 71 68 65 61 59 59 57 53 52 50 47 44 43 43 43 43 43 43 43 43 43 44 46 47 46 46 46 44 45 46 43 42 43 43 43 44 44 44 44 45 45 45
44 48 53 58 63 68 71 75 78 81 82 84 86 87 86 84 81 79 78 78 76 73 71 68 65 63 62 60 57 55 54 50 45 44 45 46 45 43 44 46 47 47 48 48 48 49 50 49 48 49 50 48 45 44 44 45 46 47 47 48 48 49 49
40 44 49 54 60 65 69 73 76 80 82 84 85 88 88 87 85 83 81 79 77 76 73 71 68 66 65 63 60 58 56 54 50 48 48 48 46 44 45 48 50 51 52 53 53 52 53 52 51 50 50 51 51 51 51 52 52 52 52 53 53 53 53
35 40 45 50 56 61 66 71 74 77 81 83 85 86 89 90 89 87 83 80 79 78 77 74 71 69 68 66 63 59 56 54 53 52 51 49 47 44 46 50 52 53 55 57 56 54 53 54 54 53 53 53 54 54 56 57 58 58 59 59 58 57 57
32 35 39 45 50 56 62 68 72 75 79 82 84 85 88 90 91 90 87 84 81 79 77 76 73 71 70 67 65 63 60 57 55 55 54 52 48 46 48 53 54 55 57 58 58 58 57 57 58 59 60 59 59 59 59 59 61 62 63 63 63 62 61
27 31 35 39 44 50 57 63 69 73 76 80 83 85 86 88 90 91 90 88 85 82 79 77 75 72 70 69 67 66 65 63 62 60 58 57 54 52 54 58 60 60 61 60 60 62 62 61 61 62 64 65 64 64 63 63 63 64 66 67 67 66 65
20 25 30 34 38 43 50 57 64 69 73 77 80 84 85 86 88 89 90 90 88 85 82 80 77 74 71 70 69 66 63 63 65 65 64 63 63 62 62 63 64 65 65 64 63 64 64 63 63 64 66 67 67 66 67 67 66 66 68 69 69 68 67
15 19 24 28 32 37 42 49 56 64 70 74 77 81 84 85 86 86 88 89 89 88 86 83 80 76 73 71 71 69 66 63 63 64 66 67 69 70 70 69 68 69 69 69 68 67 66 65 65 66 68 69 69 69 69 71 71 70 70 70 70 69 69
13 14 17 21 26 31 36 41 48 56 64 70 74 78 81 83 85 85 85 86 86 87 86 84 82 79 76 73 72 72 73 72 69 66 66 69 71 72 73 74 73 73 73 73 73 72 70 69 68 69 69 70 72 72 72 72 73 73 72 72 72 72 72
13 13 14 16 20 25 31 36 41 48 55 63 70 74 78 80 83 84 84 84 84 84 84 83 80 78 77 78 77 75 75 77 78 75 73 72 73 73 73 74 75 75 75 76 77 76 76 75 75 74 74 73 75 77 76 75 75 74 73 72 72 72 73
Wind_Direction
224 224 219 215 218 216 209 201 195 194 197 208 248 15 43 44 53 77 101 111 115 118 117 118 121 123 121 120 126 131 128 122 117 116 117 119 120 121 124 127 129 131 132 132 132 131 130 130 130 129 127 124 121 121 120 119 118 116 115 113 111 109 107
224 223 219 215 215 215 210 202 194 192 194 200 219 243 29 49 51 71 103 120 124 125 127 127 126 126 126 127 131 135 133 127 123 122 123 123 123 124 127 130 132 132 133 134 133 132 132 132 131 131 129 126 125 125 124 123 121 119 118 117 115 113 110
221 222 219 217 215 213 210 204 195 192 192 196 208 226 234 164 56 64 101 127 135 134 135 136 134 131 131 133 137 140 139 135 131 130 130 128 127 129 132 135 137 136 135 137 136 135 134 134 134 134 133 131 130 129 128 126 124 122 120 118 115 112 109
218 219 219 218 216 213 211 206 197 193 191 194 202 213 221 222 193 71 95 129 143 145 144 145 143 139 136 137 142 145 146 142 138 138 138 136 133 134 136 138 140 142 141 141 140 139 138 138 138 137 136 135 133 131 129 126 123 120 117 114 110 105 101
216 217 218 219 218 214 211 206 200 198 200 203 209 209 211 218 216 201 142 134 148 154 154 152 151 149 145 143 145 149 151 149 145 142 144 143 140 139 139 139 140 143 144 144 144 143 142 142 142 140 138 135 133 131 127 123 119 116 113 110 105 99 94
215 216 216 218 218 215 210 205 201 201 204 208 211 208 205 209 211 207 204 180 158 161 163 162 159 158 156 153 152 153 154 154 151 148 147 148 146 143 142 141 141 143 145 146 147 148 147 145 144 140 136 134 132 130 127 122 119 116 112 108 102 97 91
215 215 214 216 218 216 211 207 204 202 204 208 209 206 201 201 204 206 203 201 187 169 169 171 168 164 163 162 160 159 158 157 156 155 153 153 152 149 146 144 144 147 149 150 150 152 150 146 143 141 139 138 137 135 132 129 125 120 111 102 95 86 80
213 214 214 214 216 215 212 209 207 206 208 210 211 207 201 199 202 204 200 200 205 191 174 175 176 172 169 168 168 167 165 163 162 162 161 160 160 158 154 150 149 151 154 156 156 154 150 146 146 147 148 146 144 141 138 135 133 126 116 108 94 71 58
212 212 213 213 214 214 212 210 209 209 209 210 211 211 204 200 202 204 200 198 201 203 192 182 182 181 178 175 174 173 172 170 168 167 167 168 168 168 165 160 156 155 157 159 157 153 151 153 155 156 154 150 147 146 145 143 141 140 138 135 122 60 16
213 211 211 213 214 213 213 212 210 210 211 210 211 211 207 201 201 203 203 200 197 198 200 196 187 185 184 182 181 179 178 175 173 171 171 171 171 172 173 170 165 161 161 161 158 158 162 166 166 164 162 160 160 161 164 168 176 195 215 215 207 228 269
215 212 211 213 215 214 213 213 212 212 212 212 211 210 208 203 201 203 206 205 202 198 197 198 194 188 187 187 187 186 184 182 179 176 175 175 175 176 177 178 176 174 173 171 168 173 180 179 178 178 177 177 179 184 191 201 212 222 232 231 228 245 271
218 215 213 214 216 216 214 212 214 214 212 213 213 210 208 206 202 203 205 206 208 207 200 196 194 191 190 189 190 191 189 187 185 183 181 180 180 181 182 185 187 189 190 188 183 187 191 189 188 191 193 194 197 203 209 217 226 230 230 229 237 261 282
218 217 215 215 216 217 215 212 214 216 214 212 213 211 210 208 204 203 204 204 207 212 210 202 195 192 190 188 189 192 193 191 190 188 188 187 187 188 189 191 194 199 201 197 191 192 193 193 195 198 202 205 208 214 221 227 236 243 244 245 253 263 274
219 217 216 215 216 217 216 213 214 218 217 214 212 212 211 210 206 204 204 204 205 208 210 210 204 197 191 186 184 187 190 192 194 194 193 193 194 194 195 197 199 203 203 198 195 197 197 197 201 205 210 214 218 225 232 238 245 253 258 260 263 267 270
220 218 215 214 216 217 216 212 212 217 219 217 214 213 212 210 208 206 205 205 206 208 208 209 209 206 198 190 184 182 183 188 193 196 197 199 200 200 200 202 204 207 206 200 199 203 204 204 208 212 217 222 227 234 240 244 248 254 259 263 266 268 268
220 219 216 214 215 217 216 211 208 214 219 219 216 215 213 211 210 209 208 206 206 208 210 210 210 210 208 201 192 186 185 187 189 192 196 199 202 204 207 211 213 215 215 210 209 212 213 213 215 219 223 226 231 237 243 248 250 252 256 259 264 267 264
219 219 217 214 213 215 215 211 207 210 217 219 218 217 214 211 210 212 211 208 208 209 210 211 211 211 211 209 204 198 196 194 192 193 195 196 198 203 209 215 221 225 227 225 224 226 227 227 226 229 232 233 235 240 245 250 252 254 256 258 262 265 264
219 218 217 215 213 213 214 212 209 209 214 218 219 218 216 212 212 214 213 212 212 211 210 212 213 213 212 211 211 210 208 204 201 200 200 200 201 204 209 215 220 224 227 228 229 232 235 236 237 239 241 242 243 244 247 250 252 255 256 257 261 263 263
219 218 217 216 214 213 213 213 211 210 213 217 219 219 218 215 213 213 214 213 213 213 212 213 214 214 214 212 212 214 216 214 212 209 208 207 207 209 212 217 222 225 227 228 229 231 234 235 237 240 242 245 247 248 249 251 252 253 253 255 258 260 260
219 218 218 217 216 215 213 213 213 213 213 216 218 219 219 218 216 214 213 214 214 213 213 214 214 215 215 214 213 215 217 218 218 218 216 214 214 214 217 221 225 229 231 233 234 235 236 237 238 240 243 245 248 250 252 253 253 254 255 256 257 258 259
221 219 218 217 217 216 216 215 214 215 215 216 217 218 219 220 221 218 215 215 215 213 213 214 215 216 216 215 215 217 218 220 221 222 222 222 222 222 224 226 229 232 234 237 239 239 240 241 242 244 246 248 250 251 252 253 254 254 255 256 257 257 258
221 220 219 218 217 217 217 217 216 215 217 217 217 217 218 220 222 222 218 215 214 215 214 214 215 217 218 217 217 218 219 220 222 223 224 225 225 226 228 230 232 234 236 239 241 243 243 243 244 246 248 250 251 252 252 254 255 255 256 256 256 258 259
221 221 220 218 218 217 217 218 217 216 216 218 218 217 217 219 221 222 221 217 215 214 215 216 217 217 218 219 220 220 221 222 223 224 225 224 224 225 228 230 233 235 237 239 240 242 243 244 245 248 249 249 251 253 254 254 255 256 257 258 258 260 262
221 221 221 219 218 217 217 217 217 216 215 217 218 218 217 218 219 221 221 221 218 215 214 217 219 219 219 220 221 222 223 224 225 227 229 230 230 229 230 232 234 237 238 239 239 241 244 245 246 249 251 250 251 254 255 255 255 256 257 259 261 262 263
223 221 221 220 218 218 217 217 217 216 214 215 217 218 217 217 217 219 221 222 222 220 217 216 218 219 219 220 221 223 225 226 228 230 233 235 235 233 233 235 237 239 240 239 240 242 244 244 243 246 250 251 251 253 254 254 254 255 256 260 263 263 264
224 222 221 221 219 218 217 217 217 216 214 214 216 218 218 217 217 219 221 222 224 224 222 219 219 219 220 220 221 224 227 227 229 232 235 237 236 236 237 239 242 244 243 243 244 246 247 246 244 245 248 250 250 251 252 253 253 254 256 260 263 265 267
226 223 221 221 220 219 218 217 217 217 216 214 215 217 218 219 219 219 221 223 224 225 225 223 220 218 219 221 222 224 226 226 229 233 237 239 240 241 240 241 244 246 247 249 252 253 253 253 252 250 249 249 248 248 250 252 253 254 256 258 260 264 267
227 225 222 221 220 220 219 218 217 217 217 215 215 216 217 219 220 221 221 222 224 226 226 225 223 219 219 221 223 225 225 225 229 235 239 241 243 245 244 244 246 248 249 251 254 254 254 255 256 256 253 250 249 249 250 252 254 255 255 257 260 262 264
228 226 223 221 220 220 220 219 218 218 218 217 216 216 217 218 219 221 222 222 224 225 226 227 226 223 222 223 226 227 226 227 231 237 240 242 245 248 251 253 253 252 252 254 255 255 253 253 254 255 254 253 252 251 251 252 254 255 256 257 260 263 265
229 227 225 222 220 220 220 220 219 219 218 218 217 217 217 218 218 219 221 222 224 225 226 227 228 227 226 227 229 229 228 229 233 237 241 242 245 249 254 256 256 256 256 257 257 256 254 252 253 255 255 254 253 252 252 254 255 255 256 258 259 262 264
231 229 227 225 222 220 220 220 220 219 219 219 219 218 218 219 220 219 219 221 223 225 226 227 229 230 231 231 232 231 230 230 231 235 241 244 245 247 251 254 256 257 258 258 257 254 253 253 254 255 255 254 254 254 256 257 257 256 257 258 260 261 263
234 232 230 227 224 222 220 220 220 220 220 220 220 219 219 220 221 221 220 219 221 224 226 228 230 231 232 233 232 232 231 231 232 234 238 242 243 242 245 251 254 255 256 256 256 254 253 254 253 253 257 259 259 260 262 262 260 258 258 259 260 261 261
237 236 234 231 228 225 222 221 220 221 220 220 220 221 220 220 221 223 223 221 221 222 225 227 229 230 231 232 232 232 231 232 233 234 236 239 238 236 237 242 246 249 251 253 254 253 254 254 252 252 257 261 263 266 268 266 263 260 259 260 261 261 261
241 239 237 235 232 229 226 223 222 221 221 221 221 222 222 221 221 223 224 224 224 223 224 225 227 228 230 231 232 232 233 234 235 235 235 235 234 233 233 236 239 242 246 249 251 251 252 253 253 254 257 261 264 267 268 267 265 263 261 261 261 262 263
248 243 240 239 237 234 230 227 224 223 222 222 222 222 223 223 223 223 224 225 226 226 226 225 226 227 228 230 231 231 232 234 236 235 234 234 234 233 234 237 239 241 244 246 248 250 251 251 253 255 259 261 263 265 265 265 265 264 262 261 261 262 263
262 252 246 242 240 238 235 232 228 226 224 223 223 223 224 224 224 224 224 225 226 227 227 227 227 227 227 229 230 231 230 231 232 232 231 233 235 235 236 239 242 244 245 245 247 250 251 251 252 254 257 259 261 261 262 263 264 264 263 262 262 262 263
272 267 260 251 246 242 239 236 233 229 226 224 224 224 224 224 225 225 225 225 226 227 227 228 228 228 228 229 229 230 231 232 232 232 232 233 235 236 238 240 242 244 244 245 246 247 249 250 250 251 254 256 259 260 260 262 264 264 264 263 263 262 263
269 272 272 267 259 251 244 240 237 233 230 227 225 224 224 225 225 226 226 226 226 226 227 227 228 228 229 230 230 230 231 233 235 235 236 236 236 235 237 240 242 243 244 245 245 247 248 250 251 252 254 256 258 260 262 263 264 264 264 262 262 262 264
Height
10937 10940 10943 10946 10948 10951 10952 10953 10953 10954 10955 10955 10955 10954 10954 10953 10953 10953 10953 10953 10953 10953 10954 10954 10955 10956 10957 10958 10958 10958 10958 10959 10960 10961 10962 10962 10962 10963 10964 10964 10965 10966 10967 10969 10970 10972 10973 10974 10975 10977 10978 10979 10980 10981 10982 10983 10985 10985 10986 10987 10988 10989 10989
10934 10937 10940 10943 10945 10948 10950 10951 10951 10952 10953 10954 10955 10954 10954 10953 10953 10953 10953 10953 10953 10954 10954 10955 10956 10956 10957 10958 10959 10960 10960 10961 10961 10963 10964 10965 10965 10966 10967 10967 10968 10969 10970 10972 10973 10974 10975 10977 10978 10979 10980 10981 10983 10984 10985 10986 10987 10987 10988 10989 10990 10991 10991
10931 10934 10936 10940 10943 10945 10947 10948 10950 10951 10952 10953 10954 10954 10954 10953 10953 10954 10954 10954 10954 10954 10955 10955 10956 10957 10958 10959 10960 10961 10962 10962 10963 10964 10965 10966 10967 10968 10969 10970 10970 10971 10973 10974 10975 10976 10978 10979 10980 10981 10983 10984 10985 10986 10987 10988 10989 10989 10991 10992 10992 10993 10994
10927 10930 10933 10937 10940 10943 10945 10947 10949 10950 10950 10951 10952 10953 10953 10953 10953 10954 10954 10955 10954 10954 10955 10956 10957 10957 10958 10959 10960 10962 10963 10964 10965 10965 10966 10967 10969 10970 10971 10972 10972 10973 10975 10976 10977 10978 10980 10981 10982 10983 10984 10985 10986 10988 10989 10990 10991 10992 10993 10994 10995 10996 10996
10923 10926 10930 10934 10937 10940 10942 10944 10947 10949 10950 10951 10951 10951 10952 10953 10953 10954 10955 10955 10955 10955 10955 10956 10957 10958 10959 10960 10961 10962 10963 10964 10965 10966 10967 10968 10969 10971 10972 10973 10974 10975 10977 10978 10978 10980 10981 10982 10983 10984 10985 10987 10988 10990 10992 10993 10994 10995 10996 10997 10997 10997 10998
10919 10922 10926 10930 10933 10936 10938 10939 10941 10943 10944 10945 10946 10948 10950 10951 10953 10953 10954 10956 10956 10956 10956 10957 10957 10958 10959 10961 10962 10963 10964 10965 10966 10967 10968 10969 10970 10972 10973 10974 10975 10977 10978 10979 10980 10981 10982 10983 10984 10986 10988 10989 10991 10993 10994 10996 10996 10997 10997 10998 10998 10998 10998
10914 10918 10922 10925 10928 10931 10934 10936 10937 10938 10938 10939 10942 10945 10948 10949 10951 10952 10953 10955 10956 10957 10957 10957 10958 10959 10960 10961 10962 10963 10964 10966 10967 10968 10969 10970 10971 10972 10974 10975 10977 10978 10979 10980 10981 10982 10983 10985 10987 10988 10990 10992 10993 10994 10995 10996 10997 10997 10998 10998 10999 10999 10999
10910 10914 10918 10920 10923 10927 10931 10934 10936 10937 10938 10940 10943 10945 10947 10948 10949 10950 10952 10954 10956 10957 10957 10958 10958 10959 10960 10961 10962 10963 10965 10966 10967 10968 10970 10971 10972 10973 10975 10976 10978 10979 10980 10981 10982 10984 10986 10987 10989 10990 10991 10992 10993 10994 10995 10996 10997 10997 10998 10998 10999 10999 10999
10904 10908 10912 10915 10919 10923 10927 10930 10932 10934 10936 10939 10942 10944 10945 10947 10948 10949 10950 10951 10953 10955 10957 10958 10958 10959 10960 10961 10962 10964 10965 10966 10967 10969 10970 10971 10973 10974 10976 10977 10978 10979 10981 10982 10984 10986 10988 10989 10990 10991 10991 10993 10994 10995 10995 10996 10997 10997 10998 10998 10998 10999 10999
10898 10903 10907 10911 10915 10919 10923 10926 10929 10931 10934 10937 10939 10941 10943 10945 10946 10947 10949 10949 10950 10952 10955 10957 10958 10959 10960 10961 10962 10964 10965 10966 10967 10968 10970 10972 10973 10975 10976 10977 10978 10979 10981 10983 10985 10987 10988 10989 10990 10991 10992 10993 10994 10994 10995 10996 10996 10997 10997 10997 10997 10998 10998
10894 10898 10903 10907 10911 10914 10918 10921 10925 10928 10931 10934 10937 10939 10941 10943 10945 10946 10948 10949 10950 10950 10952 10954 10957 10958 10959 10961 10962 10964 10965 10966 10967 10968 10969 10971 10973 10975 10976 10977 10978 10979 10981 10982 10984 10986 10987 10988 10989 10990 10991 10992 10993 10993 10994 10995 10996 10996 10997 10997 10997 10998 10998
10888 10893 10898 10901 10905 10909 10913 10917 10920 10924 10927 10930 10933 10937 10939 10941 10943 10944 10946 10949 10951 10951 10951 10952 10954 10956 10958 10959 10961 10963 10964 10966 10967 10968 10969 10970 10972 10973 10975 10976 10978 10978 10979 10981 10983 10984 10985 10987 10988 10989 10990 10991 10992 10992 10993 10994 10994 10995 10996 10996 10997 10997 10997
10882 10887 10891 10895 10899 10903 10907 10912 10915 10919 10923 10926 10929 10933 10935 10937 10940 10942 10944 10946 10948 10950 10952 10952 10952 10954 10956 10958 10960 10962 10964 10965 10967 10968 10968 10970 10971 10972 10973 10975 10976 10977 10978 10979 10981 10982 10984 10985 10986 10987 10988 10989 10990 10991 10992 10993 10993 10994 10995 10995 10996 10996 10996
10876 10881 10885 10889 10893 10897 10902 10907 10910 10914 10918 10921 10924 10927 10930 10933 10936 10939 10941 10943 10945 10947 10950 10952 10953 10953 10954 10955 10957 10960 10962 10964 10966 10967 10968 10969 10970 10971 10972 10973 10974 10975 10976 10978 10980 10981 10982 10984 10985 10986 10987 10988 10989 10990 10991 10992 10992 10993 10993 10993 10994 10994 10995
10870 10875 10879 10884 10888 10892 10897 10902 10906 10909 10913 10917 10920 10923 10926 10929 10932 10935 10937 10939 10942 10944 10947 10950 10952 10954 10954 10955 10956 10958 10960 10962 10964 10965 10967 10968 10969 10970 10971 10972 10973 10974 10975 10977 10978 10979 10981 10982 10983 10984 10986 10987 10988 10989 10989 10990 10991 10991 10991 10991 10992 10992 10993
10864 10869 10874 10879 10883 10887 10892 10897 10901 10905 10908 10912 10916 10920 10923 10926 10929 10932 10934 10937 10939 10942 10945 10947 10950 10952 10954 10955 10955 10956 10958 10959 10961 10963 10965 10966 10968 10969 10971 10972 10973 10974 10975 10976 10978 10979 10980 10981 10982 10983 10984 10985 10986 10987 10988 10988 10988 10988 10989 10989 10990 10990 10991
10858 10863 10868 10873 10877 10881 10885 10891 10896 10899 10903 10907 10911 10915 10919 10922 10925 10929 10932 10934 10936 10938 10941 10945 10947 10949 10952 10954 10955 10956 10956 10957 10958 10960 10962 10964 10966 10968 10969 10971 10972 10973 10974 10975 10977 10978 10978 10980 10981 10982 10983 10984 10985 10985 10986 10986 10986 10986 10986 10987 10987 10988 10989
10852 10856 10860 10865 10869 10873 10878 10884 10889 10894 10898 10901 10905 10910 10914 10918 10922 10925 10928 10931 10933 10935 10938 10941 10944 10946 10948 10951 10953 10955 10955 10955 10956 10957 10959 10961 10963 10965 10966 10968 10969 10970 10972 10973 10975 10976 10976 10978 10979 10980 10980 10981 10982 10982 10983 10983 10983 10984 10984 10984 10985 10986 10986
10844 10848 10852 10856 10861 10866 10872 10878 10883 10888 10892 10896 10900 10904 10908 10913 10917 10921 10924 10926 10929 10933 10935 10937 10939 10942 10944 10946 10949 10951 10952 10953 10954 10954 10955 10957 10959 10961 10963 10964 10966 10967 10969 10970 10972 10973 10974 10975 10976 10976 10977 10977 10978 10979 10979 10980 10980 10981 10981 10982 10983 10983 10983
10836 10840 10844 10849 10854 10860 10866 10872 10877 10882 10886 10891 10895 10899 10903 10907 10912 10916 10919 10922 10925 10928 10931 10932 10935 10937 10940 10942 10944 10946 10948 10950 10951 10951 10952 10954 10956 10958 10959 10961 10962 10964 10966 10967 10968 10969 10971 10972 10972 10973 10974 10975 10975 10976 10976 10976 10977 10978 10979 10979 10980 10980 10979
10829 10833 10838 10843 10848 10854 10860 10866 10871 10876 10881 10886 10890 10894 10898 10902 10906 10910 10914 10917 10920 10922 10925 10928 10930 10933 10936 10938 10940 10941 10943 10945 10946 10948 10949 10951 10952 10954 10956 10958 10959 10960 10962 10963 10964 10966 10967 10969 10969 10970 10971 10972 10972 10972 10972 10973 10974 10974 10975 10976 10976 10976 10975
10822 10826 10831 10837 10842 10848 10853 10859 10865 10871 10876 10880 10885 10889 10893 10896 10900 10904 10908 10912 10914 10917 10920 10923 10926 10929 10932 10934 10936 10937 10938 10940 10942 10944 10946 10947 10948 10950 10951 10953 10955 10956 10957 10958 10960 10962 10963 10964 10965 10966 10967 10968 10968 10968 10969 10969 10970 10970 10971 10972 10972 10972 10971
10815 10819 10825 10830 10836 10841 10847 10853 10859 10865 10870 10874 10879 10884 10887 10891 10894 10898 10902 10905 10909 10912 10914 10918 10921 10924 10926 10929 10931 10932 10935 10937 10939 10940 10941 10942 10943 10945 10946 10948 10949 10951 10952 10954 10955 10956 10957 10958 10960 10962 10963 10963 10963 10964 10965 10965 10966 10967 10967 10968 10968 10968 10968
10808 10812 10817 10823 10829 10834 10840 10845 10851 10857 10863 10868 10873 10877 10881 10885 10888 10891 10895 10899 10903 10906 10909 10912 10915 10918 10921 10924 10926 10929 10931 10934 10935 10936 10937 10939 10940 10941 10942 10943 10945 10947 10948 10949 10950 10950 10951 10953 10956 10957 10956 10957 10958 10959 10959 10960 10961 10962 10962 10963 10964 10964 10963
10801 10805 10810 10815 10821 10826 10832 10837 10842 10848 10855 10861 10866 10870 10875 10879 10882 10886 10889 10892 10896 10900 10903 10906 10908 10911 10915 10919 10922 10925 10928 10929 10931 10932 10933 10935 10936 10937 10938 10939 10941 10942 10943 10944 10945 10945 10945 10948 10951 10951 10950 10951 10953 10954 10954 10955 10955 10956 10957 10958 10959 10959 10958
10793 10798 10802 10807 10813 10818 10823 10828 10834 10840 10847 10853 10859 10863 10868 10873 10877 10879 10882 10886 10889 10892 10896 10900 10904 10908 10911 10914 10917 10921 10924 10925 10927 10928 10929 10929 10931 10933 10933 10935 10937 10938 10939 10940 10941 10940 10940 10943 10946 10946 10944 10945 10947 10948 10949 10950 10950 10951 10952 10953 10953 10954 10954
10786 10791 10795 10800 10805 10810 10815 10820 10826 10832 10839 10845 10851 10857 10862 10866 10870 10873 10876 10879 10881 10884 10889 10896 10901 10904 10906 10909 10912 10915 10918 10921 10923 10924 10925 10926 10927 10929 10929 10930 10932 10934 10934 10935 10936 10937 10938 10939 10941 10941 10940 10940 10941 10942 10943 10944 10945 10946 10947 10948 10948 10948 10949
10780 10783 10788 10793 10798 10803 10808 10813 10818 10824 10830 10837 10844 10850 10855 10859 10862 10866 10869 10872 10874 10879 10885 10890 10894 10898 10901 10904 10907 10910 10913 10917 10919 10920 10921 10922 10923 10924 10925 10927 10929 10930 10930 10929 10931 10934 10935 10935 10936 10936 10935 10934 10935 10936 10937 10938 10939 10940 10941 10942 10943 10943 10943
10773 10776 10780 10785 10790 10795 10800 10805 10811 10816 10822 10829 10835 10841 10847 10851 10855 10858 10862 10865 10869 10874 10879 10884 10888 10893 10896 10899 10902 10906 10909 10913 10915 10916 10917 10918 10920 10921 10923 10924 10924 10925 10925 10925 10926 10928 10929 10930 10931 10930 10929 10930 10931 10931 10931 10932 10932 10933 10935 10936 10937 10937 10937
10768 10770 10774 10778 10782 10787 10792 10798 10803 10809 10814 10820 10826 10833 10839 10843 10847 10851 10855 10859 10864 10869 10874 10878 10882 10887 10891 10895 10898 10902 10905 10909 10911 10912 10912 10914 10917 10919 10920 10920 10919 10919 10919 10920 10921 10921 10922 10924 10925 10924 10924 10926 10926 10925 10925 10926 10926 10927 10928 10930 10931 10931 10930
10763 10765 10768 10771 10775 10780 10785 10790 10796 10801 10806 10812 10818 10824 10830 10835 10839 10843 10848 10854 10859 10864 10868 10872 10876 10881 10885 10889 10893 10898 10902 10906 10907 10907 10906 10908 10912 10916 10917 10915 10914 10913 10913 10914 10915 10915 10916 10918 10919 10918 10919 10920 10920 10919 10919 10919 10919 10920 10921 10923 10924 10924 10924
10758 10760 10763 10766 10769 10774 10778 10783 10788 10793 10799 10804 10810 10816 10821 10826 10830 10835 10841 10848 10853 10857 10861 10866 10871 10875 10879 10883 10888 10893 10897 10900 10902 10902 10902 10902 10906 10911 10912 10911 10910 10908 10906 10906 10908 10909 10910 10911 10912 10912 10912 10913 10913 10913 10913 10912 10912 10912 10913 10915 10916 10916 10916
10755 10756 10758 10760 10764 10768 10772 10776 10781 10786 10791 10797 10802 10807 10812 10817 10822 10827 10834 10841 10846 10850 10855 10860 10864 10868 10873 10878 10882 10885 10889 10892 10894 10896 10895 10896 10899 10904 10905 10905 10904 10901 10899 10900 10902 10903 10902 10903 10904 10904 10904 10905 10905 10905 10905 10905 10904 10904 10905 10907 10908 10908 10909
10751 10752 10754 10756 10759 10763 10766 10771 10775 10779 10784 10789 10794 10799 10803 10808 10814 10820 10827 10833 10838 10843 10848 10852 10857 10862 10866 10870 10874 10877 10881 10885 10887 10888 10888 10890 10892 10894 10893 10893 10892 10891 10891 10893 10895 10895 10894 10895 10896 10897 10896 10896 10897 10897 10897 10896 10896 10896 10897 10898 10899 10900 10901
10748 10749 10751 10752 10755 10758 10761 10765 10768 10773 10777 10782 10786 10791 10795 10800 10806 10813 10819 10825 10830 10835 10840 10844 10850 10855 10859 10863 10867 10871 10875 10878 10878 10879 10880 10882 10883 10883 10882 10881 10882 10882 10884 10886 10887 10886 10886 10888 10889 10889 10888 10888 10888 10888 10888 10888 10888 10889 10889 10890 10891 10894 10895
10746 10746 10747 10749 10751 10753 10755 10758 10762 10765 10770 10774 10779 10783 10787 10792 10799 10805 10811 10816 10821 10827 10832 10837 10843 10848 10852 10856 10860 10864 10867 10869 10868 10869 10872 10873 10873 10873 10874 10874 10875 10875 10876 10878 10879 10879 10879 10880 10880 10881 10880 10879 10879 10879 10879 10879 10880 10880 10881 10882 10884 10886 10887
10744 10744 10745 10746 10747 10748 10750 10752 10755 10758 10762 10767 10771 10775 10780 10786 10791 10797 10802 10808 10813 10819 10825 10830 10835 10840 10844 10847 10851 10854 10857 10858 10859 10860 10862 10862 10863 10864 10866 10866 10866 10867 10868 10869 10870 10870 10869 10870 10870 10871 10871 10871 10871 10871 10872 10872 10872 10873 10874 10875 10876 10877 10877
10742 10742 10743 10743 10743 10744 10745 10747 10749 10751 10754 10759 10763 10767 10772 10778 10783 10788 10794 10800 10805 10811 10816 10821 10826 10831 10834 10836 10840 10843 10846 10848 10849 10851 10852 10853 10854 10856 10857 10857 10858 10859 10859 10860 10860 10860 10861 10861 10862 10863 10864 10864 10864 10864 10864 10865 10865 10865 10865 10866 10866 10866 10867